Вернуться в каталог

THOR ABLESTAR DEB

АктивенLEO
NORAD 243·DEBRIS·🇺🇸 United States

Запущен Jun 29, 1961 с Cape Canaveral Space Force Station

Loading…

Ближайшие Пролёты (ближайшие 24 часа)

TLE

СвежийSource: Space-Track

Эпоха: Sep 14, 2026, 03:01 UTC

1 00243U 61015BY  26257.12573824  .00000561  00000-0  41975-3 0  9997
2 00243  66.4620 139.5699 0022352  18.9328 341.2580 14.02054277295766

Отслеживайте THOR ABLESTAR DEB в реальном времени с AllMySat

Download on the App Store